Flag for Colombia Weather past 2 weeks in San Andrés, Colombia

Now
81 °F

Passing clouds.


Feels Like: 85 °F
Forecast: 80 / 83 °F
Wind: 15 mph from East

Location: San Andres Isla / Sesquicentenario

Current Time: Feb 27, 2015 at 3:29:40 AM

Latest Report: Feb 27, 2015 at 2:00 AM


Visibility: N/A

Pressure: 29.85 "Hg

Humidity: 79%

Dew point: 73 °F

Location of San AndrésLocation

Historic Weather in San Andrés — Graph

°F

San Andrés temperature yesterday

Maximum temperature yesterday: 84 °F (at 12:00 PM)
Minimum temperature yesterday: 79 °F (at 12:00 AM)
Average temperature yesterday: 81 °F

Past Weeks' High & Low Weather Summary

 TemperatureHumidityPressure
High93 °F (Feb 20, 1:00 PM)94% (Feb 20, 8:00 AM)30.18 "Hg (Feb 20, 8:00 AM)
Low70 °F (Feb 15, 7:00 PM)49% (Feb 20, 1:00 PM)29.81 "Hg (Feb 20, 1:00 PM)
Average81 °F79%29.92 "Hg
* Reported Feb 12 2:00 AM — Feb 27 2:00 AM, San Andrés, Weather by CustomWeather, © 2015

Note: Actual official high and low records may vary slightly from our data, if they occured in-between our weather recording intervals... More about our weather records

Advertising

San Andrés weather history for previous 24 hours

 ConditionsComfort  
Time TempWeatherWind HumidityBarometerVisibility
2:00 AM
Fri, Feb 27
81 °FPassing clouds.15 mph79%29.85 "HgN/A
1:00 AM81 °FPassing clouds.14 mph79%29.86 "HgN/A
11:00 PM
Thu, Feb 26
81 °FPassing clouds.9 mph84%29.89 "HgN/A
10:00 PM81 °FPassing clouds.10 mph79%29.89 "HgN/A
9:00 PM81 °FPassing clouds.13 mph84%29.87 "HgN/A
7:00 PM81 °FPassing clouds.12 mph79%29.83 "HgN/A
6:00 PM82 °FPassing clouds.5 mph74%29.88 "HgN/A
5:00 PM82 °FPassing clouds.6 mph79%29.81 "HgN/A
3:00 PM84 °FPassing clouds.5 mph74%29.82 "HgN/A
2:00 PM84 °FPassing clouds.2 mph74%29.84 "HgN/A
1:00 PM84 °FScattered clouds.8 mph74%29.86 "HgN/A
12:00 PM84 °FPassing clouds.7 mph74%29.88 "HgN/A
10:00 AM82 °FPassing clouds.6 mph79%29.90 "HgN/A
9:00 AM82 °FScattered clouds.7 mph79%29.89 "HgN/A
8:00 AM81 °FScattered clouds.9 mph79%29.87 "HgN/A
7:00 AM81 °FScattered clouds.8 mph79%29.85 "HgN/A
6:00 AM79 °FPassing clouds.9 mph84%29.84 "HgN/A
5:00 AM79 °FPassing clouds.3 mph89%29.82 "HgN/A
4:00 AM79 °FPassing clouds.3 mph84%29.82 "HgN/A
3:00 AM79 °FPassing clouds.5 mph79%29.84 "HgN/A
Weather by CustomWeather, © 2015

See weather overviewHow to use our weather pages